Location: Foligno
(42.9600°N, 12.7050°E)
Time: 16:44:21
(UTC+02:00)

ISS - Pass Details

Date: 28 May 2020
Orbit: 417 x 420 km, 51.6° (Epoch: 25 May)

Event Time Altitude Azimuth Distance (km) Brightness Sun altitude
Rises 21:33:35 0° 304° (NW) 2,365 2.3 -9.0°
Reaches altitude 10° 21:35:56 10° 318° (NW) 1,501 0.7 -9.3°
Maximum altitude 21:38:46 25° 16° (NNE) 894 -1.8 -9.7°
Drops below altitude 10° 21:41:37 10° 74° (ENE) 1,498 -1.3 -10.1°
Enters shadow 21:42:40 - 82° (E) 1,869 -0.8 -10.2°
